Location: Bühlhof
(48.7849°N, 8.6361°E)
Time: 07:10:32
(UTC+00:00)

ARIANE 6 FM1 Upper Stage - Visible Passes

Search period start: 12 March 2026 00:00
Search period end: 22 March 2026 00:00
Orbit: 523 x 607 km, 62.0° (Epoch: 11 March)

Date Brightness Start Highest point End Pass type
(mag) Time Alt. Az. Time Alt. Az. Time Alt. Az.
12 Mar 5.3 02:45:55 12° SE 02:46:30 12° ESE 02:48:06 10° E visible
12 Mar 2.6 04:21:56 18° SW 04:24:53 84° SE 04:28:55 10° NE visible
13 Mar 5.0 02:46:08 17° ESE 02:46:08 17° ESE 02:48:48 10° ENE visible
13 Mar 2.6 04:22:08 22° SW 04:24:41 71° NW 04:28:42 10° NE visible
14 Mar 4.6 02:46:13 23° ESE 02:46:13 23° ESE 02:49:02 10° ENE visible
14 Mar 2.9 04:22:13 23° WSW 04:24:30 52° NW 04:28:27 10° NE visible
15 Mar 4.2 02:46:13 30° E 02:46:13 30° E 02:49:04 10° ENE visible
15 Mar 3.3 04:22:13 22° W 04:24:21 39° NW 04:28:09 10° NE visible
16 Mar 3.9 02:46:08 37° E 02:46:08 37° E 02:48:59 10° NE visible
16 Mar 3.6 04:22:08 20° W 04:24:14 31° NNW 04:27:51 10° NNE visible
17 Mar 3.7 02:46:00 42° ENE 02:46:00 42° ENE 02:48:49 10° NE visible
17 Mar 4.0 04:21:59 17° WNW 04:24:08 25° NNW 04:27:31 10° NNE visible
18 Mar 3.6 02:45:47 44° NE 02:45:47 44° NE 02:48:35 10° NE visible
18 Mar 4.3 04:21:46 14° WNW 04:24:03 21° NNW 04:27:11 10° NNE visible
19 Mar 3.7 02:45:31 41° NNE 02:45:31 41° NNE 02:48:19 10° NE visible
19 Mar 4.5 04:21:30 12° WNW 04:24:00 18° NNW 04:26:50 10° NNE visible
20 Mar 3.8 02:45:13 37° N 02:45:13 37° N 02:48:00 10° NE visible
20 Mar 4.7 04:21:24 10° WNW 04:23:57 16° NNW 04:26:30 10° NNE visible
21 Mar 4.0 02:44:52 32° N 02:44:52 32° N 02:47:40 10° NNE visible
21 Mar 4.9 04:21:39 10° NW 04:23:56 14° NNW 04:26:12 10° NNE visible
